Regional Weather Roundup
Issued by NWS Albany, NY

Current Version | Previous Version | Text Only | Print | Product List | Glossary On
Versions: 1 2 3 4 5 6 7 8 9 10 11 12 13 14 15 16 17 18 19 20 21 22 23 24 25 26 27 28 29 30 31 32 33 34 35 36 37 38 39 40 41 42 43 44 45 46 47 48 49 50
489
ASUS41 KALY 220010
RWRALY

NEW YORK STATE HOURLY WEATHER ROUNDUP
NATIONAL WEATHER SERVICE ALBANY NY
800 PM EDT SAT OCT 21 2017

NOTE: "FAIR" INDICATES FEW OR NO CLOUDS BELOW 12,000 FEET WITH NO
SIGNIFICANT WEATHER AND/OR NO OBSTRUCTIONS TO VISIBILITY.

NYZ032-033-038>043-046>054-057>066-NYZ062>081-082-084-220100-
EAST


CITY           SKY/WX    TMP DP  RH WIND       PRES   REMARKS
ALBANY         CLOUDY    54  47  77 CALM      30.31R
GLENS FALLS    CLOUDY    49  46  90 CALM      30.30R
POUGHKEEPSIE   CLOUDY    54  48  80 CALM      30.31R
MONTGOMERY     CLOUDY    57  46  66 SW3       30.32R
WHITE PLAINS   CLOUDY    57  46  66 CALM      30.33S
ISLIP          CLOUDY    60  56  86 SW3       30.34S
NEW YORK CITY  MOCLDY    68  43  40 S8        30.33S
CENTRAL PARK   CLEAR     66  41  40 CALM      30.36R
$$

NYZ005>009-017-018-044>046-055-056-220100-
CENTRAL


CITY           SKY/WX    TMP DP  RH WIND       PRES   REMARKS
FULTON         CLOUDY    56  49  77 SE3       30.28R
SYRACUSE       CLOUDY    53  48  83 E3        30.28S
ROME           CLOUDY    51  47  86 E3        30.32R
ELMIRA         CLOUDY    54  48  80 CALM      30.32R
BINGHAMTON     CLOUDY    64  38  38 S6        30.34R
MONTICELLO     CLOUDY    60  45  57 CALM      30.37R
$$

NYZ026>034-041>043-087-220100-
NORTH


CITY           SKY/WX    TMP DP  RH WIND       PRES   REMARKS
WATERTOWN      CLOUDY    46  44  93 E3        30.27S
FORT DRUM      NOT AVBL
OGDENSBURG     FAIR      53  48  83 CALM      30.27R
MASSENA        CLEAR     60  48  64 SW7       30.27R
SARANAC LAKE   CLEAR     46  46 100 CALM      30.30R
PLATTSBURGH    CLEAR     54  50  86 CALM      30.26R
$$

NYZ001>004-010>016-019>021-085-220100-
WEST


CITY           SKY/WX    TMP DP  RH WIND       PRES   REMARKS
NIAGARA FALLS  CLOUDY    59  46  62 CALM      30.24S
BUFFALO        CLEAR     61  46  57 SE5       30.25S
DUNKIRK        PTCLDY    56  49  77 CALM      30.24S
JAMESTOWN      CLOUDY    62  45  53 S6        30.29S
WELLSVILLE     CLOUDY    64  38  38 SE6       30.34R
ROCHESTER      MOCLDY    58  52  80 CALM      30.26S
PENN YAN       CLOUDY    53  45  74 S3        30.30R
$$

             KEY
       WCI = WIND CHILL INDEX
       VSB = VISIBILITY
       HX  = HEAT INDEX
$$




USA.gov is the U.S. government's official web portal to all federal, state and local government web resources and services.